Change the Weather History Date:

Monday, December 30, 2013

  Actual Average (KHOT) Record (KHOT)
Temperature  
Mean Temperature 30 °F -  
Max Temperature 35 °F 51 °F 77 °F (1984)
Min Temperature 24 °F 33 °F 5 °F (1983)
Degree Days  
Heating Degree Days 35    
Moisture  
Dew Point 26 °F    
Average Humidity 83    
Maximum Humidity 96    
Minimum Humidity 73    
Precipitation  
Precipitation 0.00 in - - ()
Sea Level Pressure  
Sea Level Pressure 30.28 in    
Wind  
Wind Speed 2 mph (NW)    
Max Wind Speed 5 mph    
Max Gust Speed -    
Visibility 9 miles    
Events Snow    
Averages and records for this station are not official NWS values.
T = Trace of Precipitation, MM = Missing Value Source: NWS Daily Summary

Daily Weather History Graph

Daily Weather History Graph

Search for Another Location

Airport or City:

Trip Planner

Search our weather history database for the weather conditions in past years. The results will help you decide how hot, cold, wet, or windy it might be!

Date:

Astronomy

Dec. 30, 2013 Rise Set
Actual Time 7:20 AM CST 5:13 PM CST
Civil Twilight 6:52 AM CST 5:41 PM CST
Nautical Twilight 6:21 AM CST 6:12 PM CST
Astronomical Twilight 5:50 AM CST 6:43 PM CST
Moon 5:13 AM CST (12/30) 3:45 PM CST (12/30)
Length of Visible Light 10h 48m
Length of Day
9h 52m
Waning Crescent, 4% of the Moon is Illuminated
Dec 30
Waning Crescent
Jan 1
New
Jan 7
First Quarter
Jan 15
Full
Jan 23
Last Quarter

Hourly Weather History & Observations

Time (CST) Temp. Windchill Dew Point Humidity Pressure Visibility Wind Dir Wind Speed Gust Speed Precip Events Conditions
12:53 AM 32.0 °F 28.7 °F 24.1 °F 73% 30.22 in 10.0 mi NW 3.5 mph - N/A   Overcast
1:53 AM 32.0 °F 28.7 °F 25.0 °F 75% 30.21 in 10.0 mi Variable 3.5 mph - N/A   Overcast
2:53 AM 30.9 °F 27.5 °F 26.1 °F 82% 30.21 in 10.0 mi Variable 3.5 mph - N/A   Overcast
3:53 AM 30.9 °F 26.2 °F 25.0 °F 79% 30.22 in 10.0 mi Variable 4.6 mph - N/A   Overcast
4:53 AM 30.9 °F - 25.0 °F 79% 30.21 in 10.0 mi Calm Calm - N/A   Overcast
5:53 AM 30.0 °F 26.5 °F 25.0 °F 82% 30.23 in 8.0 mi NNW 3.5 mph - N/A   Overcast
6:53 AM 28.9 °F 25.2 °F 25.0 °F 85% 30.26 in 8.0 mi Variable 3.5 mph - N/A   Overcast
7:17 AM 28.9 °F 25.2 °F 25.0 °F 85% 30.22 in 9.0 mi Variable 3.5 mph - N/A   Overcast
7:27 AM 28.9 °F - 25.0 °F 85% 30.22 in 10.0 mi Calm Calm - N/A   Overcast
7:53 AM 28.9 °F - 25.0 °F 85% 30.27 in 6.0 mi Calm Calm - N/A   Overcast
8:01 AM 28.9 °F - 25.0 °F 85% 30.23 in 4.0 mi Calm Calm - 0.00 in Snow Light Snow
8:53 AM 28.9 °F - 25.0 °F 85% 30.30 in 6.0 mi Calm Calm - 0.00 in   Overcast
9:53 AM 30.0 °F - 25.0 °F 82% 30.33 in 10.0 mi Calm Calm - N/A   Overcast
10:53 AM 30.0 °F 26.5 °F 26.1 °F 85% 30.32 in 10.0 mi Variable 3.5 mph - N/A   Overcast
11:53 AM 30.0 °F - 26.1 °F 85% 30.31 in 10.0 mi Calm Calm - N/A   Overcast
12:53 PM 32.0 °F 28.7 °F 27.0 °F 82% 30.27 in 10.0 mi Variable 3.5 mph - N/A   Overcast
1:53 PM 33.1 °F - 27.0 °F 78% 30.26 in 10.0 mi Calm Calm - N/A   Overcast
2:29 PM 33.1 °F - 27.0 °F 78% 30.23 in 10.0 mi Calm Calm - N/A   Overcast
2:53 PM 34.0 °F - 27.0 °F 75% 30.26 in 10.0 mi Calm Calm - N/A   Overcast
3:53 PM 34.0 °F - 27.0 °F 75% 30.26 in 10.0 mi Calm Calm - N/A   Overcast
4:53 PM 35.1 °F 31.0 °F 28.0 °F 76% 30.29 in 10.0 mi Variable 4.6 mph - N/A   Overcast
5:53 PM 35.1 °F - 28.0 °F 76% 30.31 in 10.0 mi Calm Calm - N/A   Overcast
6:53 PM 33.1 °F - 28.0 °F 82% 30.33 in 10.0 mi Calm Calm - N/A   Overcast
7:15 PM 30.9 °F - 27.0 °F 85% 30.30 in 10.0 mi Calm Calm - N/A   Partly Cloudy
7:53 PM 28.9 °F - 27.0 °F 92% 30.36 in 10.0 mi Calm Calm - N/A   Clear
8:53 PM 27.0 °F - 25.0 °F 92% 30.40 in 10.0 mi Calm Calm - N/A   Clear
9:53 PM 25.0 °F - 24.1 °F 96% 30.39 in 9.0 mi Calm Calm - N/A   Clear
10:53 PM 25.0 °F - 23.0 °F 92% 30.41 in 8.0 mi Calm Calm - N/A   Clear
11:53 PM 24.1 °F - 21.9 °F 91% 30.40 in 9.0 mi Calm Calm - N/A   Clear